This demonstration page uses our WeatherBlox Daily Observations layout. Learn more.

Left ArrowRight Arrow

47.50024, -111.30081

Hourly Observations for March 21, 2017

Temp ( °F °C ) Dew Point ( °F °C ) Humidity (%) Winds ( mph kmh ) Pressure ( in mb ) Visibility ( mi km ) Precip ( " mm )
12:53 am 00:53 Cloudy 36 2.2 19 -7.2 50 50 ESE 9 15 30.27 1025 10 16 0.00 0.00
1:53 am 01:53 Cloudy 36 2.2 24 -4.4 62 62 SE 12 19 30.25 1024 10 16 0.00 0.00
2:53 am 02:53 Cloudy 35 1.7 25 -3.9 67 67 SE 8 13 30.24 1024 10 16 0.00 0.00
3:53 am 03:53 Cloudy 35 1.7 25 -3.9 67 67 E 7 11 30.22 1023 10 16 0.00 0.00
4:53 am 04:53 Cloudy 34 1.1 26 -3.3 73 73 SE 8 13 30.22 1023 10 16 0.00 0.00
5:53 am 05:53 Cloudy 33 0.6 26 -3.3 75 75 ESE 8 13 30.21 1023 10 16 0.00 0.00
6:53 am 06:53 Cloudy 33 0.6 26 -3.3 75 75 SE 8 13 30.20 1023 10 16 0.00 0.00
7:53 am 07:53 Cloudy 34 1.1 26 -3.3 73 73 SE 13 20 30.20 1023 10 16 0.00 0.00
8:53 am 08:53 Cloudy 35 1.7 25 -3.9 67 67 ESE 9 15 30.19 1022 10 16 0.00 0.00
9:53 am 09:53 Cloudy 37 2.8 25 -3.9 62 62 ESE 9 15 30.17 1022 10 16 0.00 0.00
10:53 am 10:53 Mostly Sunny 40 4.4 26 -3.3 58 58 ESE 5 7 30.13 1020 10 16 0.00 0.00
11:53 am 11:53 Mostly Cloudy 45 7.2 27 -2.8 49 49 E 7 11 30.09 1019 10 16 0.00 0.00
12:53 pm 12:53 Partly Cloudy 47 8.3 28 -2.2 48 48 SE 7 11 30.04 1017 10 16 0.00 0.00
1:53 pm 13:53 Mostly Sunny 52 11.1 29 -1.7 41 41 S 8 13 29.99 1016 10 16 0.00 0.00
2:53 pm 14:53 Partly Cloudy 53 11.7 30 -1.1 41 41 SE 8 13 29.96 1014 10 16 0.00 0.00
3:53 pm 15:53 Mostly Sunny 54 12.2 28 -2.2 37 37 NE 9 15 29.91 1013 10 16 0.00 0.00
4:53 pm 16:53 Partly Cloudy 54 12.2 29 -1.7 38 38 NE 7 11 29.89 1012 10 16 0.00 0.00
5:53 pm 17:53 Mostly Sunny 53 11.7 29 -1.7 40 40 E 5 7 29.89 1012 10 16 0.00 0.00
6:53 pm 18:53 Mostly Cloudy 51 10.6 31 -0.6 46 46 ESE 8 13 29.87 1012 10 16 0.00 0.00
7:53 pm 19:53 Mostly Cloudy 47 8.3 31 -0.6 54 54 SE 6 9 29.87 1011 10 16 0.00 0.00
8:53 pm 20:53 Partly Cloudy 43 6.1 30 -1.1 60 60 Calm 29.86 1011 10 16 0.00 0.00
9:53 pm 21:53 Mostly Cloudy 41 5 30 -1.1 65 65 SSW 3 6 29.85 1011 10 16 0.00 0.00
10:53 pm 22:53 Mostly Cloudy 42 5.6 31 -0.6 65 65 ESE 7 11 29.83 1010 10 16 0.00 0.00
11:53 pm 23:53 Mostly Cloudy 42 5.6 30 -1.1 62 62 S 16 26 29.81 1010 10 16 0.00 0.00

Powered by AerisWeather